Flag for U.S.A. Weather past 2 weeks in Winder, Georgia, U.S.A.

Now
84 °F

Scattered clouds.


Feels Like: 93 °F
Forecast: 72 / 85 °F
Wind: 8 mph from Northwest

Location: Winder-Barrow Airport

Current Time: Jul 24, 2014 at 11:50:34 AM

Latest Report: Jul 24, 2014 at 11:15 AM


Visibility: 10 mi

Pressure: 30.04 "Hg

Humidity: 74%

Dew point: 75 °F

Location of WinderLocation

Historic Weather in Winder — Graph

°F

Winder temperature yesterday

Maximum temperature yesterday: 91 °F (at 3:55 PM)
Minimum temperature yesterday: 73 °F (at 7:15 AM)
Average temperature yesterday: 82 °F

Past Weeks' High & Low Weather Summary

 TemperatureHumidityPressure
High94 °F (Jul 14, 2:15 PM)100% (Jul 11, 2:35 AM)30.27 "Hg (Jul 11, 2:35 AM)
Low64 °F (Jul 17, 5:55 AM)34% (Jul 16, 6:55 PM)29.85 "Hg (Jul 15, 6:35 PM)
Average79 °F80%30.08 "Hg
* Reported Jul 9 10:15 AM — Jul 24 10:15 AM, Winder, Weather by CustomWeather, © 2014

Note: Actual official high and low records may vary slightly from our data, if they occured in-between our weather recording intervals... More about our weather records

Advertising

Winder weather history for previous 24 hours

 ConditionsComfort  
Time TempWeatherWind HumidityBarometerVisibility
10:15 AM
Jul 24
84 °FSunny.8 mph76%30.03 "Hg10 mi
9:35 AM81 °FSunny.3 mph84%30.03 "Hg10 mi
9:15 AM79 °FSunny.5 mph89%30.03 "Hg10 mi
8:55 AM78 °FSunny.6 mph91%30.03 "Hg10 mi
8:35 AM78 °FSunny.3 mph92%30.02 "Hg10 mi
8:15 AM77 °FSunny.3 mph95%30.02 "Hg10 mi
4:35 AM74 °FClear.3 mph99%29.99 "Hg7 mi
4:15 AM75 °FClear.No wind98%29.99 "Hg10 mi
3:55 AM76 °FClear.3 mph95%29.99 "Hg10 mi
3:35 AM76 °FClear.5 mph96%29.99 "Hg10 mi
3:15 AM76 °FClear.No wind96%30.00 "Hg10 mi
2:55 AM76 °FClear.3 mph94%30.00 "Hg10 mi
2:35 AM76 °FClear.3 mph95%30.01 "Hg10 mi
2:15 AM76 °FPassing clouds.No wind95%30.01 "Hg10 mi
1:35 AM76 °FPassing clouds.No wind93%30.03 "Hg10 mi
1:15 AM77 °FPartly cloudy.No wind93%30.04 "Hg10 mi
12:55 AM76 °FClear.No wind94%30.04 "Hg10 mi
12:35 AM76 °FClear.No wind94%30.03 "Hg10 mi
12:15 AM77 °FClear.No wind91%30.03 "Hg10 mi
11:55 PM
Jul 23
77 °FClear.5 mph91%30.03 "Hg10 mi
11:35 PM78 °FClear.3 mph91%30.03 "Hg10 mi
11:15 PM78 °FClear.No wind87%30.03 "Hg10 mi
10:55 PM79 °FClear.3 mph88%30.03 "Hg10 mi
10:15 PM78 °FPassing clouds.No wind90%30.03 "Hg10 mi
9:55 PM79 °FPartly cloudy.No wind89%30.03 "Hg10 mi
9:35 PM79 °FBroken clouds.3 mph88%30.03 "Hg10 mi
8:55 PM82 °FBroken clouds.5 mph79%30.02 "Hg10 mi
8:35 PM84 °FBroken clouds.No wind76%30.02 "Hg10 mi
8:15 PM85 °FBroken clouds.No wind73%30.02 "Hg10 mi
7:55 PM86 °FScattered clouds.No wind68%30.02 "Hg10 mi
7:35 PM87 °FScattered clouds.No wind66%30.02 "Hg10 mi
7:15 PM88 °FSunny.3 mph63%30.02 "Hg10 mi
6:55 PM89 °FSunny.5 mph59%30.01 "Hg10 mi
6:35 PM89 °FSunny.5 mph62%30.01 "Hg10 mi
6:15 PM89 °FScattered clouds.5 mph61%30.02 "Hg10 mi
5:55 PM90 °FSunny.5 mph60%30.02 "Hg10 mi
5:15 PM90 °FBroken clouds.3 mph59%30.03 "Hg10 mi
4:55 PM88 °FBroken clouds.6 mph63%30.04 "Hg10 mi
4:15 PM89 °FScattered clouds.5 mph58%30.05 "Hg10 mi
3:55 PM91 °FScattered clouds.7 mph56%30.06 "Hg10 mi
3:15 PM89 °FBroken clouds.3 mph57%30.07 "Hg10 mi
2:55 PM89 °FScattered clouds.No wind57%30.08 "Hg10 mi
2:35 PM86 °FScattered clouds.No wind65%30.08 "Hg10 mi
2:15 PM87 °FScattered clouds.3 mph65%30.10 "Hg10 mi
1:55 PM87 °FScattered clouds.6 mph61%30.10 "Hg10 mi
1:15 PM85 °FMore clouds than sun.6 mph70%30.12 "Hg10 mi
12:55 PM85 °FBroken clouds.No wind64%30.12 "Hg10 mi
12:35 PM86 °FScattered clouds.No wind64%30.13 "Hg10 mi
12:15 PM86 °FBroken clouds.No wind67%30.13 "Hg10 mi
11:55 AM84 °FPartly sunny.No wind74%30.14 "Hg10 mi
11:15 AM83 °FScattered clouds.No wind77%30.14 "Hg10 mi
Weather by CustomWeather, © 2014

See weather overviewHow to use our weather pages